Location: Unspecified
(35.7250°N, 0.0000°E)
Time: 02:36:04
(UTC+00:00)

Vanguard 2 - Pass Details

Date: 18 June 2019
Orbit: 553 x 2938 km, 32.9° (Epoch: 23 July)

Event Time Altitude Azimuth Distance (km) Brightness Sun altitude
Rises 13:01:43 0° 277° (W) 4,565 11.7 72.0°
Reaches altitude 10° 13:04:18 10° 274° (W) 3,849 11.5 71.6°
Maximum altitude 13:15:02 67° 195° (SSW) 2,389 12.0 69.8°
Drops below altitude 10° 13:31:32 10° 117° (ESE) 5,662 11.9 66.9°
Sets 13:36:16 0° 115° (ESE) 6,770 12.2 66.0°
